Location: Wells
(51.2093°N, 2.6446°W)
Time: 07:38:11
(UTC+01:00)

SO-50 - Pass Details

Date: 17 March 2026
Orbit: 567 x 673 km, 64.6° (Epoch: 17 April)

Event Time Altitude Azimuth Distance (km) Brightness Sun altitude
Rises 22:14:39 0° 305° (NW) 3,013 ? -33.4°
Reaches altitude 10° 22:17:45 10° 326° (NW) 2,109 ? -33.7°
Maximum altitude 22:20:53 17° 7° (N) 1,690 ? -34.0°
Enters shadow 22:21:21 17° 14° (NNE) 1,701 ? -34.1°
